Miscellaneous Local Product
Issued by NWS North Platte, NE

Home | Current Version | Previous Version | Text Only | Print | Product List | Glossary On
Versions: 1 2 3 4 5 6 7 8 9 10 11 12 13 14 15 16 17 18 19 20 21 22 23 24 25 26 27 28 29 30 31 32 33 34 35 36 37 38 39 40 41 42 43 44 45 46 47 48 49 50
680
AXUS43 KLBF 181910
MISLBF


WESTERN AND NORTH CENTRAL NEBRASKA HOURLY WEATHER ROUNDUP
NATIONAL WEATHER SERVICE NORTH PLATTE NE
200 PM CDT FRI MAY 18 2018

NOTE: "FAIR" INDICATES FEW OR NO CLOUDS BELOW 12,000 FEET WITH NO
SIGNIFICANT WEATHER AND/OR OBSTRUCTIONS TO VISIBILITY.

NOTE: STATIONS NOT REPORTING VARIABLES SUCH AS SKY/WEATHER OR
PRESSURE ARE PROVIDED BY RAWS AND APRS NETWORKS AND ARE NOT UNDER
NATIONAL WEATHER SERVICE QUALITY CONTROL.

...OBSERVATIONS IN AND NEAR THE EASTERN PANHANDLE OF NEBRASKA...

CITY           SKY/WX    TMP DP  RH WIND       PRES   REMARKS
PINE RIDGE     PTSUNNY   71  54  54 N10       29.93S
GORDON         CLOUDY    68  54  60 NW6       29.93F
CHADRON        PTSUNNY   69  53  56 CALM      29.92F
ALLIANCE       MOSUNNY   67  53  61 VRB6      29.94F
SIDNEY         CLOUDY    62  52  69 NE9       29.96S
CRESCENT LAKE    N/A     67  53  59 N5G13       N/A
$$

...OBSERVATIONS IN NORTHERN NEBRASKA AND FAR SOUTHERN SOUTH DAKOTA...

CITY           SKY/WX    TMP DP  RH WIND       PRES   REMARKS
WINNER         CLOUDY    69  56  62 N3        29.92R
VALENTINE      CLOUDY    67  57  70 NE12      29.92S
AINSWORTH      CLOUDY    65  58  77 N7        29.92S
O`NEILL        CLOUDY    69  61  74 N8        29.91F
THEDFORD       CLOUDY    70  57  64 N10       29.93S
BROKEN BOW     CLOUDY    68  56  65 N5        29.91S
ORD            CLOUDY    67  58  72 N9        29.88S
ALBION         CLOUDY    68  59  72 W5        29.89S
VALENTINE NWR    N/A     66  55  68 N9G16       N/A
HALSEY           N/A     70  55  59 N6G13       N/A
BUTTE            N/A     65  58  79 N6G13       N/A
CHAMBERS         N/A     74  60  62 N3          N/A
EWING            N/A     67  61  81 NW7         N/A
$$

...OBSERVATIONS IN SOUTHWEST NEBRASKA AND FAR NORTHEAST COLORADO...

CITY           SKY/WX    TMP DP  RH WIND       PRES   REMARKS
WRAY           CLOUDY    66  52  59 E8        29.90S
HOLYOKE        FAIR      72  54  53 NE13      29.90F
IMPERIAL       CLOUDY    71  55  56 E14       29.89F
OGALLALA       CLOUDY    68  56  64 NE5       29.91F
NORTH PLATTE   CLOUDY    70  58  65 NE9       29.90F
MCCOOK         CLOUDY    73  60  63 SE14G25   29.86S
LEXINGTON      CLOUDY    66  59  78 CALM      29.91S
STAPLETON        N/A     67  56  67 E3G12       N/A
GOTHENBURG       N/A     68  54  60 E6          N/A
CALLAWAY         N/A     67  59  74 NE6         N/A
$$

...OBSERVATIONS IN CENTRAL LINCOLN COUNTY AREA...

CITY           SKY/WX    TMP DP  RH WIND       PRES   REMARKS
N.P. AIRPORT   CLOUDY    70  58  65 NE9       29.90F
N.P. DOWNTOWN    N/A     69  58  68 E5          N/A
N.P. SOUTHEAST   N/A     70  58  64 NE3         N/A
$$

...OBSERVATIONS ACROSS THE ROCKIES AND WESTERN HIGH PLAINS...

CITY           SKY/WX    TMP DP  RH WIND       PRES   REMARKS
RAPID CITY     CLOUDY    66  55  67 NE10      29.94R
SCOTTSBLUFF    CLOUDY    70  55  59 VRB3      29.93F
CHEYENNE       CLOUDY    60  50  69 SE9       29.97F
DENVER         PTSUNNY   63  51  65 E9        29.93F
BERTHOUD PASS  FAIR      36  27  69 E16       30.21F WCI  26
COPPER MTN     FLURRIES  39  27  60 S9G21     30.25R WCI  33
MONARCH PASS   PTSUNNY   50  10  20 MISG      30.29F
ASPEN          MOSUNNY   71   1   6 S12G33    29.90F
STEAMBOAT      FAIR      65  27  23 W9G17     29.89R
LARAMIE        CLOUDY    57  45  64 S17       29.97S
CASPER         PTSUNNY   68  46  45 NE13      29.95F
$$

...OBSERVATIONS ACROSS THE NORTHERN PLAINS...

CITY           SKY/WX    TMP DP  RH WIND       PRES   REMARKS
BISMARCK       CLOUDY    49  44  83 N16       30.00R
FARGO          LGT RAIN  55  52  89 N12       29.83R
PIERRE         PTSUNNY   71  58  63 NW12      29.88S
SIOUX FALLS    CLOUDY    72  57  59 S15G24    29.88R
$$

...OBSERVATIONS ACROSS THE CENTRAL AND SOUTHERN PLAINS...

CITY           SKY/WX    TMP DP  RH WIND       PRES   REMARKS
OMAHA          CLOUDY    81  57  43 W9        29.89F
GRAND ISLAND   CLOUDY    64  58  80 W8        29.89R
KANSAS CITY    MOSUNNY   82  60  47 E12G18    29.88F
WICHITA        MOSUNNY   86  63  45 SE13G23   29.82F
DODGE CITY     PTSUNNY   86  56  35 SE16G28   29.77F
OKLAHOMA CITY  MOSUNNY   86  65  49 SE10      29.78F
DALLAS         MOSUNNY   95  58  28 S16       29.77S HX  94
AMARILLO       SUNNY     87  54  32 S17       29.78F
$$




USA.gov is the U.S. government's official web portal to all federal, state and local government web resources and services.